Location: Newark
(45.8667°N, 9.7333°E)
Time: 02:18:15
(UTC+00:00)

Vanguard 3 - Pass Details

Date: 02 February 2020
Orbit: 508 x 3263 km, 33.3° (Epoch: 25 February)

Event Time Altitude Azimuth Distance (km) Brightness Sun altitude
Rises 19:09:44 0° 274° (W) 7,098 13.2 -28.4°
Reaches altitude 10° 19:14:46 10° 268° (W) 6,180 12.5 -29.3°
Maximum altitude 19:32:22 42° 207° (SSW) 3,857 10.5 -32.3°
Enters shadow 19:41:39 24° 157° (SSE) 4,237 10.4 -33.9°
Drops below altitude 10° 19:46:16 10° 144° (SE) 4,924 - -34.7°
Sets 19:49:47 0° 137° (SE) 5,594 - -35.3°
